ARIANE 2 R/B, 19773

Orbit data source: Space-Track

ARIANE 2 R/B, 19773 is space debris in HEO originally from a launch on Fri, 27 Jan 1989 UTC launched from the French Guiana (FRGUI). Debris objects in space refer to the collection of defunct objects orbiting the Earth. Examples of debris include non-operational satellites, rocket bodies, and fragments generated from explosions, collisions, or faulty payload assembly.

Not visible in the next 10 days
Identifier
19773, 1989-006B
Orbit
HEO
Country
Flag of FRFR
Related business
Manufacturer
Ae/LesM
Mission
Spacecraft
Bus & Motor
ARIANE H10, Unknown motor
Mass
1,820 kg wet, 1,820 kg dry
Launch date (UTC)
1989-01-27 (37 years ago)
Launch vehicle
Unknown
Launch site
French Guiana (FRGUI)
Object type
Payload
Rocket body
Debris
Shape & HBR
Cyl, 5.9 m
Radar Cross Section
26.751 m², Large (>1 m²)

Expand to show TLE details & history
Last TLE update: 15 hours ago

TLE from 15 hours ago
0 ARIANE 2 R/B
1 19773U 89006B   26067.85009747 -.00000004  00000-0  13809-2 0  9999
2 19773   8.2775  88.6155 7160980  49.2482 353.8346  2.29246497308368
Epoch: 2026-03-08T20:24Z
TLE epoch observation values (Epoch: 2026-03-08T20:24:08.421Z)
Latitude
-0.00005°
Longitude
-23.79587°
Altitude
1,670.352 km
Speed
9.09 km/s
True Right ascension
05h 55m 09s
True Declination
0° 00' 00"
Sunlit
Object was in daylight at epoch
Visualization orbit readout
Latitude
Unknown
Longitude
Unknown
Altitude
Unknown
Speed
Unknown
Apparent Right ascension
Unknown
Apparent Declination
Unknown
Sunlit
N/A
Visualization observer readout
Local Sidereal Time
15:48:31
Azimuth
Unknown
Elevation
Unknown
Doppler factor
Unknown
Orbital elements
Apogee altitude
35,324.935 km
Perigee altitude
520.994 km
Semi-major axis
24,301.102 km
Eccentricity
0.7161
Inclination
8.2775°
RAAN
88.6155°
Arg. of periapsis
49.2482°
True anomaly
311.84158°
Mean anomaly
353.8346°
Eccentric anomaly
339.39621°
Mean motion
0.57293 °/min
Orbital period
628.35 mins
BSTAR
0.0013809
Loading maneuver chart data...
Computing Atmospheric mass density...
Loading historical data...
Loading historical data...
Loading historical data...
Loading historical data...
Loading historical data...
Loading historical data...
Loading historical data...

Documentation

Showing up to 5 results
|